Location: Cheyres
(46.8153°N, 6.7877°E)
Time: 11:59:58
(UTC+00:00)

SPOT 1/Viking Rocket - Pass Details

Date: 11 May 2021
Orbit: 776 x 794 km, 98.4° (Epoch: 19 June)

Event Time Altitude Azimuth Distance (km) Brightness Sun altitude
Exits shadow 19:42:57 - 132° (SE) 2,428 5.4 -7.6°
Reaches altitude 10° 19:43:09 10° 131° (SE) 2,354 5.3 -7.6°
Maximum altitude 19:47:52 36° 66° (ENE) 1,238 4.4 -8.2°
Drops below altitude 10° 19:52:34 10° 1° (N) 2,359 6.6 -8.9°
Sets 19:55:03 0° 353° (N) 3,289 7.5 -9.2°
